Zurück zum Katalog

COSMOS 2251 DEB

AktivLEO
NORAD 35840·DEBRIS·🇷🇺 Russia

Gestartet Jun 16, 1993 von Plesetsk Cosmodrome

Loading…

Nächste Überflüge (nächste 24 Stunden)

TLE

VeraltetSource: Space-Track

Epoche: Aug 31, 2026, 02:11 UTC

1 35840U 93036ATN 26243.09157555  .00003693  00000-0  10926-2 0  9996
2 35840  73.9313  32.6118 0109527 238.5223 120.5192 14.40349246890518

Verfolge COSMOS 2251 DEB in Echtzeit mit AllMySat

Download on the App Store